Time,TemperatureF,DewpointF,PressureIn,WindDirection,WindDirectionDegrees,WindSpeedMPH,WindSpeedGustMPH,Humidity,HourlyPrecipIn,Conditions,Clouds,dailyrainin,SoftwareType,DateUTC
2013-04-30 00:30:00,50.5,36.0,30.90,East,93,0.9,0.9,57,0.00,,,0.00,TxWx,2013-04-30 04:30:00,
2013-04-30 00:36:00,50.3,36.0,30.90,ESE,123,1.2,1.2,58,0.00,,,0.00,TxWx,2013-04-30 04:36:00,
2013-04-30 00:41:00,49.8,38.0,30.91,ESE,122,1.5,1.5,63,0.00,,,0.00,TxWx,2013-04-30 04:41:00,
2013-04-30 00:47:00,49.9,38.0,30.90,ESE,123,0.3,0.3,63,0.00,,,0.00,TxWx,2013-04-30 04:47:00,
2013-04-30 00:52:00,49.7,38.0,30.90,ESE,123,0.0,0.0,63,0.00,,,0.00,TxWx,2013-04-30 04:52:00,
2013-04-30 00:57:00,49.4,37.0,30.90,SE,124,0.0,0.0,64,0.00,,,0.00,TxWx,2013-04-30 04:57:00,
2013-04-30 01:02:00,49.1,37.0,30.90,SE,128,0.0,0.0,63,0.00,,,0.00,TxWx,2013-04-30 05:02:00,
2013-04-30 01:07:00,49.0,37.0,30.90,SE,125,0.0,0.0,63,0.00,,,0.00,TxWx,2013-04-30 05:07:00,
2013-04-30 01:13:00,48.8,38.0,30.90,ESE,119,0.0,0.0,65,0.00,,,0.00,TxWx,2013-04-30 05:13:00,
2013-04-30 01:18:00,48.8,39.0,30.90,ESE,119,0.0,0.0,68,0.00,,,0.00,TxWx,2013-04-30 05:18:00,
2013-04-30 01:23:00,48.7,39.0,30.90,ESE,119,0.0,0.0,68,0.00,,,0.00,TxWx,2013-04-30 05:23:00,
2013-04-30 01:28:00,48.5,39.0,30.90,ESE,119,0.0,0.0,69,0.00,,,0.00,TxWx,2013-04-30 05:28:00,
2013-04-30 01:33:00,48.4,38.0,30.90,ESE,119,0.0,0.0,70,0.00,,,0.00,TxWx,2013-04-30 05:33:00,
2013-04-30 01:39:00,48.3,39.0,30.90,ESE,120,0.0,0.0,70,0.00,,,0.00,TxWx,2013-04-30 05:39:00,
2013-04-30 01:44:00,48.2,39.0,30.90,ESE,120,0.0,0.0,72,0.00,,,0.00,TxWx,2013-04-30 05:44:00,
2013-04-30 01:49:00,48.2,39.0,30.90,ESE,119,0.0,0.0,72,0.00,,,0.00,TxWx,2013-04-30 05:49:00,
2013-04-30 01:54:00,48.2,39.0,30.89,ESE,122,0.0,0.0,72,0.00,,,0.00,TxWx,2013-04-30 05:54:00,
2013-04-30 01:59:00,48.2,39.0,30.89,ESE,115,0.6,0.6,72,0.00,,,0.00,TxWx,2013-04-30 05:59:00,
2013-04-30 02:04:00,48.1,39.0,30.89,ESE,115,0.6,0.6,72,0.00,,,0.00,TxWx,2013-04-30 06:04:00,
2013-04-30 02:09:00,48.0,39.0,30.89,ESE,114,0.0,0.3,72,0.00,,,0.00,TxWx,2013-04-30 06:09:00,
2013-04-30 02:14:00,48.0,39.0,30.90,ESE,114,0.0,0.0,72,0.00,,,0.00,TxWx,2013-04-30 06:14:00,
2013-04-30 02:19:00,48.0,40.0,30.89,ESE,114,0.0,0.0,73,0.00,,,0.00,TxWx,2013-04-30 06:19:00,
2013-04-30 02:24:00,48.0,40.0,30.89,ESE,115,0.0,0.0,73,0.00,,,0.00,TxWx,2013-04-30 06:24:00,
2013-04-30 02:29:00,48.1,40.0,30.89,ESE,115,0.0,0.0,73,0.00,,,0.00,TxWx,2013-04-30 06:29:00,
2013-04-30 02:35:00,48.2,40.0,30.89,ESE,108,0.3,0.6,74,0.00,,,0.00,TxWx,2013-04-30 06:35:00,
2013-04-30 02:40:00,48.2,40.0,30.89,East,100,0.3,0.6,74,0.00,,,0.00,TxWx,2013-04-30 06:40:00,
2013-04-30 02:45:00,48.3,40.0,30.89,East,100,0.0,0.0,73,0.00,,,0.00,TxWx,2013-04-30 06:45:00,
2013-04-30 02:50:00,48.3,40.0,30.89,ESE,121,0.9,0.9,74,0.00,,,0.00,TxWx,2013-04-30 06:50:00,
2013-04-30 02:56:00,48.2,40.0,30.89,ESE,122,1.8,1.8,73,0.00,,,0.00,TxWx,2013-04-30 06:56:00,
2013-04-30 03:01:00,48.3,40.0,30.90,ESE,123,1.5,1.8,73,0.00,,,0.00,TxWx,2013-04-30 07:01:00,
2013-04-30 03:06:00,48.2,40.0,30.90,SE,125,0.9,0.9,73,0.00,,,0.00,TxWx,2013-04-30 07:06:00,
2013-04-30 03:11:00,48.3,39.0,30.90,SE,125,0.9,1.2,71,0.00,,,0.00,TxWx,2013-04-30 07:11:00,
2013-04-30 03:16:00,48.5,39.0,30.89,SE,125,0.0,0.0,70,0.00,,,0.00,TxWx,2013-04-30 07:16:00,
2013-04-30 03:21:00,48.4,38.0,30.89,ESE,120,0.9,0.9,69,0.00,,,0.00,TxWx,2013-04-30 07:21:00,
2013-04-30 03:26:00,48.3,38.0,30.90,ESE,120,0.0,0.0,70,0.00,,,0.00,TxWx,2013-04-30 07:26:00,
2013-04-30 03:31:00,48.4,39.0,30.90,ESE,120,0.0,0.0,70,0.00,,,0.00,TxWx,2013-04-30 07:31:00,
2013-04-30 03:37:00,48.2,39.0,30.90,ESE,121,0.0,0.0,71,0.00,,,0.00,TxWx,2013-04-30 07:37:00,
2013-04-30 03:42:00,48.1,39.0,30.90,ESE,121,0.0,0.0,72,0.00,,,0.00,TxWx,2013-04-30 07:42:00,
2013-04-30 03:47:00,48.0,40.0,30.90,ESE,121,0.0,0.0,73,0.00,,,0.00,TxWx,2013-04-30 07:47:00,
2013-04-30 03:52:00,47.8,40.0,30.90,ESE,121,0.0,0.0,73,0.00,,,0.00,TxWx,2013-04-30 07:52:00,
2013-04-30 03:57:00,47.5,40.0,30.90,ESE,120,0.0,0.0,74,0.00,,,0.00,TxWx,2013-04-30 07:57:00,
2013-04-30 04:02:00,47.3,39.0,30.90,ESE,120,0.0,0.0,75,0.00,,,0.00,TxWx,2013-04-30 08:02:00,
2013-04-30 04:08:00,47.2,39.0,30.90,ESE,119,0.6,0.6,75,0.00,,,0.00,TxWx,2013-04-30 08:08:00,
2013-04-30 04:13:00,47.2,40.0,30.90,ESE,118,0.0,0.0,76,0.00,,,0.00,TxWx,2013-04-30 08:13:00,
2013-04-30 04:18:00,47.2,40.0,30.90,ESE,118,0.0,0.0,76,0.00,,,0.00,TxWx,2013-04-30 08:18:00,
2013-04-30 04:23:00,47.1,40.0,30.90,ESE,118,0.0,0.0,76,0.00,,,0.00,TxWx,2013-04-30 08:23:00,
2013-04-30 04:28:00,46.9,40.0,30.90,ESE,117,0.0,0.0,76,0.00,,,0.00,TxWx,2013-04-30 08:28:00,
2013-04-30 04:34:00,46.8,40.0,30.90,ESE,117,0.0,0.0,76,0.00,,,0.00,TxWx,2013-04-30 08:34:00,
2013-04-30 04:39:00,46.6,40.0,30.90,ESE,119,0.0,0.0,77,0.00,,,0.00,TxWx,2013-04-30 08:39:00,
2013-04-30 04:44:00,46.5,39.0,30.90,ESE,119,0.0,0.0,77,0.00,,,0.00,TxWx,2013-04-30 08:44:00,
2013-04-30 04:49:00,46.4,39.0,30.91,ESE,119,0.0,0.0,78,0.00,,,0.00,TxWx,2013-04-30 08:49:00,
2013-04-30 04:55:00,46.3,40.0,30.90,ESE,120,0.0,0.0,78,0.00,,,0.00,TxWx,2013-04-30 08:55:00,
2013-04-30 05:00:00,46.3,40.0,30.91,ESE,118,0.0,0.0,79,0.00,,,0.00,TxWx,2013-04-30 09:00:00,
2013-04-30 05:05:00,46.3,40.0,30.91,ESE,118,0.6,0.6,80,0.00,,,0.00,TxWx,2013-04-30 09:05:00,
2013-04-30 05:10:00,46.4,40.0,30.91,ESE,119,0.0,0.0,80,0.00,,,0.00,TxWx,2013-04-30 09:10:00,
2013-04-30 05:15:00,46.4,40.0,30.91,ESE,119,0.0,0.0,80,0.00,,,0.00,TxWx,2013-04-30 09:15:00,
2013-04-30 05:20:00,46.5,40.0,30.91,ESE,119,0.0,0.0,79,0.00,,,0.00,TxWx,2013-04-30 09:20:00,
2013-04-30 05:25:00,46.5,40.0,30.91,ESE,120,0.0,0.0,79,0.00,,,0.00,TxWx,2013-04-30 09:25:00,
2013-04-30 05:30:00,46.5,40.0,30.91,ESE,119,0.3,0.6,79,0.00,,,0.00,TxWx,2013-04-30 09:30:00,
2013-04-30 05:36:00,46.6,40.0,30.91,ESE,121,0.0,0.0,77,0.00,,,0.00,TxWx,2013-04-30 09:36:00,
2013-04-30 05:41:00,46.6,40.0,30.91,ESE,122,0.0,0.0,77,0.00,,,0.00,TxWx,2013-04-30 09:41:00,
2013-04-30 05:46:00,46.6,40.0,30.91,ESE,119,0.3,0.6,77,0.00,,,0.00,TxWx,2013-04-30 09:46:00,
2013-04-30 05:51:00,46.4,39.0,30.92,ESE,119,0.0,0.3,77,0.00,,,0.00,TxWx,2013-04-30 09:51:00,
2013-04-30 05:56:00,46.5,40.0,30.92,ESE,119,0.6,0.6,77,0.00,,,0.00,TxWx,2013-04-30 09:56:00,
2013-04-30 06:02:00,46.6,40.0,30.92,ESE,114,0.0,0.0,78,0.00,,,0.00,TxWx,2013-04-30 10:02:00,
2013-04-30 06:07:00,46.7,40.0,30.92,ESE,114,0.0,0.0,78,0.00,,,0.00,TxWx,2013-04-30 10:07:00,
2013-04-30 06:12:00,46.9,40.0,30.93,ESE,114,0.3,0.6,78,0.00,,,0.00,TxWx,2013-04-30 10:12:00,
2013-04-30 06:17:00,47.3,40.0,30.93,ESE,106,0.0,0.0,78,0.00,,,0.00,TxWx,2013-04-30 10:17:00,
2013-04-30 06:23:00,47.6,41.0,30.93,ESE,119,0.3,0.3,77,0.00,,,0.00,TxWx,2013-04-30 10:23:00,
2013-04-30 06:28:00,47.6,41.0,30.93,East,101,0.6,0.9,77,0.00,,,0.00,TxWx,2013-04-30 10:28:00,
2013-04-30 06:33:00,47.5,40.0,30.93,East,98,0.3,0.3,76,0.00,,,0.00,TxWx,2013-04-30 10:33:00,
2013-04-30 06:39:00,47.7,41.0,30.93,ESE,106,0.3,0.3,76,0.00,,,0.00,TxWx,2013-04-30 10:39:00,
2013-04-30 06:44:00,48.0,41.0,30.94,ESE,106,0.6,0.6,76,0.00,,,0.00,TxWx,2013-04-30 10:44:00,
2013-04-30 06:49:00,48.6,41.0,30.94,ESE,120,0.3,0.3,75,0.00,,,0.00,TxWx,2013-04-30 10:49:00,
2013-04-30 06:54:00,49.4,41.0,30.94,East,100,0.6,0.6,74,0.00,,,0.00,TxWx,2013-04-30 10:54:00,
2013-04-30 06:59:00,50.4,41.0,30.94,ESE,105,0.0,0.0,72,0.00,,,0.00,TxWx,2013-04-30 10:59:00,
2013-04-30 07:04:00,51.8,41.0,30.94,SE,124,0.3,0.6,67,0.00,,,0.00,TxWx,2013-04-30 11:04:00,
2013-04-30 07:09:00,51.5,39.0,30.94,SE,129,2.1,2.1,64,0.00,,,0.00,TxWx,2013-04-30 11:09:00,
2013-04-30 07:14:00,51.4,39.0,30.95,East,86,2.4,2.4,64,0.00,,,0.00,TxWx,2013-04-30 11:14:00,
2013-04-30 07:20:00,51.7,40.0,30.95,SE,127,2.7,3.0,63,0.00,,,0.00,TxWx,2013-04-30 11:20:00,
2013-04-30 07:25:00,53.0,39.0,30.95,SE,124,2.4,2.4,60,0.00,,,0.00,TxWx,2013-04-30 11:25:00,
2013-04-30 07:30:00,53.1,38.0,30.95,East,83,3.0,3.0,56,0.00,,,0.00,TxWx,2013-04-30 11:30:00,
2013-04-30 07:35:00,54.2,38.0,30.95,East,84,3.0,3.0,55,0.00,,,0.00,TxWx,2013-04-30 11:35:00,
2013-04-30 07:41:00,55.0,38.0,30.95,East,86,3.3,3.3,54,0.00,,,0.00,TxWx,2013-04-30 11:41:00,
2013-04-30 07:46:00,54.5,35.0,30.95,East,91,2.4,2.7,49,0.00,,,0.00,TxWx,2013-04-30 11:46:00,
2013-04-30 07:51:00,55.1,36.0,30.95,East,98,1.2,1.2,50,0.00,,,0.00,TxWx,2013-04-30 11:51:00,
2013-04-30 07:56:00,55.9,36.0,30.95,East,101,5.1,5.1,47,0.00,,,0.00,TxWx,2013-04-30 11:56:00,
2013-04-30 08:01:00,55.0,35.0,30.95,East,92,6.3,6.3,46,0.00,,,0.00,TxWx,2013-04-30 12:01:00,
2013-04-30 08:07:00,55.8,35.0,30.95,East,94,2.4,3.0,46,0.00,,,0.00,TxWx,2013-04-30 12:07:00,
2013-04-30 08:12:00,55.7,36.0,30.95,ESE,123,3.9,3.9,47,0.00,,,0.00,TxWx,2013-04-30 12:12:00,
2013-04-30 08:17:00,56.1,36.0,30.95,East,97,2.1,2.1,47,0.00,,,0.00,TxWx,2013-04-30 12:17:00,
2013-04-30 08:23:00,56.2,36.0,30.96,ESE,123,2.4,2.4,47,0.00,,,0.00,TxWx,2013-04-30 12:23:00,
2013-04-30 08:28:00,56.2,35.0,30.96,East,100,2.4,2.4,45,0.00,,,0.00,TxWx,2013-04-30 12:28:00,
2013-04-30 08:33:00,56.4,35.0,30.96,East,93,5.4,6.0,45,0.00,,,0.00,TxWx,2013-04-30 12:33:00,
2013-04-30 08:38:00,56.2,35.0,30.96,East,95,4.5,4.5,45,0.00,,,0.00,TxWx,2013-04-30 12:38:00,
2013-04-30 08:43:00,57.0,36.0,30.96,East,100,4.5,4.5,45,0.00,,,0.00,TxWx,2013-04-30 12:43:00,
2013-04-30 08:48:00,56.9,34.0,30.96,East,91,1.2,1.8,43,0.00,,,0.00,TxWx,2013-04-30 12:48:00,
2013-04-30 08:54:00,59.0,35.0,30.96,ESE,102,2.7,2.7,41,0.00,,,0.00,TxWx,2013-04-30 12:54:00,
2013-04-30 08:59:00,58.9,30.0,30.96,East,90,4.5,4.8,35,0.00,,,0.00,TxWx,2013-04-30 12:59:00,
2013-04-30 09:04:00,58.2,29.0,30.96,ESE,103,3.6,3.9,35,0.00,,,0.00,TxWx,2013-04-30 13:04:00,
2013-04-30 09:10:00,59.2,30.0,30.97,East,99,0.6,0.6,35,0.00,,,0.00,TxWx,2013-04-30 13:10:00,
2013-04-30 09:15:00,59.1,30.0,30.97,East,96,4.8,4.8,35,0.00,,,0.00,TxWx,2013-04-30 13:15:00,
2013-04-30 09:20:00,59.3,29.0,30.97,ESE,107,6.6,6.6,33,0.00,,,0.00,TxWx,2013-04-30 13:20:00,
2013-04-30 09:25:00,59.0,29.0,30.97,ESE,106,3.0,3.0,33,0.00,,,0.00,TxWx,2013-04-30 13:25:00,
2013-04-30 09:30:00,58.6,29.0,30.97,East,100,3.3,3.6,34,0.00,,,0.00,TxWx,2013-04-30 13:30:00,
2013-04-30 09:35:00,59.8,29.0,30.97,ESE,108,8.1,8.1,33,0.00,,,0.00,TxWx,2013-04-30 13:35:00,
2013-04-30 09:40:00,59.9,27.0,30.97,East,100,6.3,7.5,30,0.00,,,0.00,TxWx,2013-04-30 13:40:00,
2013-04-30 09:45:00,60.5,27.0,30.97,ESE,103,11.4,12.0,29,0.00,,,0.00,TxWx,2013-04-30 13:45:00,
2013-04-30 09:51:00,59.7,26.0,30.97,ESE,105,6.3,6.6,29,0.00,,,0.00,TxWx,2013-04-30 13:51:00,
2013-04-30 09:56:00,59.5,26.0,30.97,East,100,7.5,7.5,28,0.00,,,0.00,TxWx,2013-04-30 13:56:00,
2013-04-30 10:01:00,60.1,26.0,30.97,ESE,102,5.4,5.4,29,0.00,,,0.00,TxWx,2013-04-30 14:01:00,
2013-04-30 10:06:00,59.9,26.0,30.97,East,98,3.3,3.6,29,0.00,,,0.00,TxWx,2013-04-30 14:06:00,
2013-04-30 10:11:00,60.8,27.0,30.97,East,97,5.1,5.1,29,0.00,,,0.00,TxWx,2013-04-30 14:11:00,
2013-04-30 10:16:00,60.0,26.0,30.97,East,99,6.3,6.3,28,0.00,,,0.00,TxWx,2013-04-30 14:16:00,
2013-04-30 10:21:00,60.8,27.0,30.97,East,94,6.9,6.9,28,0.00,,,0.00,TxWx,2013-04-30 14:21:00,
2013-04-30 10:26:00,61.4,27.0,30.97,East,100,9.0,9.6,29,0.00,,,0.00,TxWx,2013-04-30 14:26:00,
2013-04-30 10:31:00,60.6,27.0,30.97,ESE,104,3.0,3.0,28,0.00,,,0.00,TxWx,2013-04-30 14:31:00,
2013-04-30 10:36:00,60.7,26.0,30.97,East,99,8.1,8.1,28,0.00,,,0.00,TxWx,2013-04-30 14:36:00,
2013-04-30 10:41:00,61.6,28.0,30.97,ESE,105,8.7,8.7,29,0.00,,,0.00,TxWx,2013-04-30 14:41:00,
2013-04-30 10:47:00,62.0,28.0,30.97,ESE,105,2.7,3.0,29,0.00,,,0.00,TxWx,2013-04-30 14:47:00,
2013-04-30 10:52:00,61.4,26.0,30.96,East,96,12.0,12.0,27,0.00,,,0.00,TxWx,2013-04-30 14:52:00,
2013-04-30 10:57:00,61.8,27.0,30.96,East,83,0.3,0.6,27,0.00,,,0.00,TxWx,2013-04-30 14:57:00,
2013-04-30 11:02:00,62.2,27.0,30.96,ESE,103,6.6,6.6,28,0.00,,,0.00,TxWx,2013-04-30 15:02:00,
2013-04-30 11:07:00,62.3,27.0,30.96,ESE,103,7.2,8.1,27,0.00,,,0.00,TxWx,2013-04-30 15:07:00,
2013-04-30 11:13:00,62.9,28.0,30.96,East,97,4.8,5.1,28,0.00,,,0.00,TxWx,2013-04-30 15:13:00,
2013-04-30 11:18:00,63.7,29.0,30.96,ESE,102,7.2,7.2,28,0.00,,,0.00,TxWx,2013-04-30 15:18:00,
2013-04-30 11:23:00,62.7,28.0,30.96,East,100,9.9,10.8,28,0.00,,,0.00,TxWx,2013-04-30 15:23:00,
2013-04-30 11:28:00,62.3,25.0,30.96,East,98,8.1,8.1,26,0.00,,,0.00,TxWx,2013-04-30 15:28:00,
2013-04-30 11:33:00,62.8,26.0,30.96,ESE,106,2.7,2.7,26,0.00,,,0.00,TxWx,2013-04-30 15:33:00,
2013-04-30 11:38:00,62.6,26.0,30.95,East,98,4.5,4.8,26,0.00,,,0.00,TxWx,2013-04-30 15:38:00,
2013-04-30 11:44:00,61.9,25.0,30.95,East,101,4.8,5.1,26,0.00,,,0.00,TxWx,2013-04-30 15:44:00,
2013-04-30 11:49:00,63.0,27.0,30.95,ESE,112,3.6,4.2,27,0.00,,,0.00,TxWx,2013-04-30 15:49:00,
2013-04-30 11:54:00,62.7,26.0,30.95,East,96,7.5,7.5,25,0.00,,,0.00,TxWx,2013-04-30 15:54:00,
2013-04-30 11:59:00,63.7,27.0,30.95,East,94,6.9,7.5,26,0.00,,,0.00,TxWx,2013-04-30 15:59:00,
2013-04-30 12:04:00,63.3,27.0,30.95,East,99,13.8,14.1,26,0.00,,,0.00,TxWx,2013-04-30 16:04:00,
2013-04-30 12:09:00,62.7,27.0,30.95,ESE,103,9.0,9.6,26,0.00,,,0.00,TxWx,2013-04-30 16:09:00,
2013-04-30 12:14:00,63.5,27.0,30.95,ESE,108,9.0,9.0,27,0.00,,,0.00,TxWx,2013-04-30 16:14:00,
2013-04-30 12:19:00,62.9,26.0,30.95,ESE,103,13.2,13.2,26,0.00,,,0.00,TxWx,2013-04-30 16:19:00,
2013-04-30 12:24:00,63.4,27.0,30.95,ESE,103,15.0,15.3,27,0.00,,,0.00,TxWx,2013-04-30 16:24:00,
2013-04-30 12:30:00,62.4,25.0,30.95,ESE,107,6.6,7.2,25,0.00,,,0.00,TxWx,2013-04-30 16:30:00,
2013-04-30 12:35:00,63.1,27.0,30.95,ESE,104,6.3,6.9,26,0.00,,,0.00,TxWx,2013-04-30 16:35:00,
2013-04-30 12:40:00,62.5,27.0,30.95,ESE,105,12.3,12.3,26,0.00,,,0.00,TxWx,2013-04-30 16:40:00,
2013-04-30 12:45:00,63.0,27.0,30.95,East,100,14.1,14.1,27,0.00,,,0.00,TxWx,2013-04-30 16:45:00,
2013-04-30 12:51:00,62.2,25.0,30.95,East,101,12.0,12.0,25,0.00,,,0.00,TxWx,2013-04-30 16:51:00,
2013-04-30 12:56:00,63.2,27.0,30.95,East,101,11.4,12.6,27,0.00,,,0.00,TxWx,2013-04-30 16:56:00,
2013-04-30 13:01:00,62.8,27.0,30.95,ESE,102,11.4,15.6,26,0.00,,,0.00,TxWx,2013-04-30 17:01:00,
2013-04-30 13:06:00,61.7,25.0,30.95,ESE,106,13.2,13.5,25,0.00,,,0.00,TxWx,2013-04-30 17:06:00,
2013-04-30 13:11:00,63.2,27.0,30.95,ESE,103,5.7,8.1,27,0.00,,,0.00,TxWx,2013-04-30 17:11:00,
2013-04-30 13:16:00,62.4,25.0,30.95,East,100,7.8,8.1,26,0.00,,,0.00,TxWx,2013-04-30 17:16:00,
2013-04-30 13:21:00,62.4,26.0,30.95,ESE,103,15.9,17.7,26,0.00,,,0.00,TxWx,2013-04-30 17:21:00,
2013-04-30 13:26:00,62.0,25.0,30.95,East,100,12.6,15.9,26,0.00,,,0.00,TxWx,2013-04-30 17:26:00,
2013-04-30 13:31:00,62.8,27.0,30.95,ESE,108,9.9,9.9,27,0.00,,,0.00,TxWx,2013-04-30 17:31:00,
2013-04-30 13:37:00,62.2,25.0,30.95,ESE,102,12.6,15.0,26,0.00,,,0.00,TxWx,2013-04-30 17:37:00,
2013-04-30 13:42:00,62.6,27.0,30.95,ESE,103,9.0,9.9,27,0.00,,,0.00,TxWx,2013-04-30 17:42:00,
2013-04-30 13:47:00,62.3,26.0,30.95,ESE,109,10.5,10.8,26,0.00,,,0.00,TxWx,2013-04-30 17:47:00,
2013-04-30 13:52:00,62.4,26.0,30.95,ESE,112,9.6,10.8,26,0.00,,,0.00,TxWx,2013-04-30 17:52:00,
2013-04-30 13:57:00,62.5,26.0,30.95,ESE,110,12.6,12.6,26,0.00,,,0.00,TxWx,2013-04-30 17:57:00,
2013-04-30 14:03:00,62.3,26.0,30.95,ESE,106,15.6,15.6,26,0.00,,,0.00,TxWx,2013-04-30 18:03:00,
2013-04-30 14:08:00,62.8,26.0,30.95,ESE,105,9.3,9.3,26,0.00,,,0.00,TxWx,2013-04-30 18:08:00,
2013-04-30 14:13:00,62.4,26.0,30.95,ESE,106,9.3,9.9,26,0.00,,,0.00,TxWx,2013-04-30 18:13:00,
2013-04-30 14:18:00,62.4,26.0,30.95,ESE,106,10.5,10.5,26,0.00,,,0.00,TxWx,2013-04-30 18:18:00,
2013-04-30 14:23:00,62.6,27.0,30.95,ESE,102,12.0,12.9,27,0.00,,,0.00,TxWx,2013-04-30 18:23:00,
2013-04-30 14:28:00,62.5,26.0,30.95,East,92,3.9,4.5,25,0.00,,,0.00,TxWx,2013-04-30 18:28:00,
2013-04-30 14:33:00,63.0,27.0,30.95,ESE,108,9.6,10.2,27,0.00,,,0.00,TxWx,2013-04-30 18:33:00,
2013-04-30 14:38:00,64.0,29.0,30.95,East,99,11.7,13.2,28,0.00,,,0.00,TxWx,2013-04-30 18:38:00,
2013-04-30 14:43:00,62.6,27.0,30.95,East,101,12.3,13.5,26,0.00,,,0.00,TxWx,2013-04-30 18:43:00,
2013-04-30 14:48:00,64.0,29.0,30.94,ESE,104,11.4,12.0,28,0.00,,,0.00,TxWx,2013-04-30 18:48:00,
2013-04-30 14:54:00,62.4,25.0,30.94,ESE,111,8.1,9.0,26,0.00,,,0.00,TxWx,2013-04-30 18:54:00,
2013-04-30 14:59:00,63.0,27.0,30.94,ESE,104,11.4,11.4,27,0.00,,,0.00,TxWx,2013-04-30 18:59:00,
2013-04-30 15:04:00,62.2,25.0,30.94,East,100,12.9,12.9,25,0.00,,,0.00,TxWx,2013-04-30 19:04:00,
2013-04-30 15:09:00,62.6,26.0,30.94,ESE,108,9.9,9.9,25,0.00,,,0.00,TxWx,2013-04-30 19:09:00,
2013-04-30 15:15:00,63.2,26.0,30.94,ESE,103,13.2,13.2,25,0.00,,,0.00,TxWx,2013-04-30 19:15:00,
2013-04-30 15:20:00,62.5,25.0,30.94,ESE,109,9.0,11.1,25,0.00,,,0.00,TxWx,2013-04-30 19:20:00,
2013-04-30 15:25:00,62.8,26.0,30.94,East,101,9.9,9.9,26,0.00,,,0.00,TxWx,2013-04-30 19:25:00,
2013-04-30 15:30:00,62.5,26.0,30.94,East,100,12.3,13.2,25,0.00,,,0.00,TxWx,2013-04-30 19:30:00,
2013-04-30 15:35:00,61.7,24.0,30.94,East,98,8.7,8.7,24,0.00,,,0.00,TxWx,2013-04-30 19:35:00,
2013-04-30 15:40:00,62.8,26.0,30.94,ESE,105,15.0,15.0,26,0.00,,,0.00,TxWx,2013-04-30 19:40:00,
2013-04-30 15:45:00,61.8,24.0,30.94,ESE,116,9.0,9.0,25,0.00,,,0.00,TxWx,2013-04-30 19:45:00,
2013-04-30 15:51:00,62.9,26.0,30.94,ESE,105,7.8,7.8,26,0.00,,,0.00,TxWx,2013-04-30 19:51:00,
2013-04-30 15:56:00,61.9,22.0,30.94,ESE,107,8.7,9.6,23,0.00,,,0.00,TxWx,2013-04-30 19:56:00,
2013-04-30 16:01:00,62.5,24.0,30.94,ESE,105,5.1,6.3,25,0.00,,,0.00,TxWx,2013-04-30 20:01:00,
2013-04-30 16:03:00,42.7,32.0,31.00,ESE,117,0.0,0.0,66,0.00,,,0.00,TxWx,2013-04-30 20:03:00,
2013-04-30 16:04:00,42.7,32.0,31.00,ESE,117,0.0,0.0,66,0.00,,,0.00,TxWx,2013-04-30 20:04:00,
2013-04-30 16:05:00,42.6,32.0,31.00,ESE,117,0.0,0.0,66,0.00,,,0.00,TxWx,2013-04-30 20:05:00,
2013-04-30 16:06:00,62.3,24.0,30.94,ESE,102,9.6,9.6,24,0.00,,,0.00,TxWx,2013-04-30 20:06:00,
2013-04-30 16:07:00,42.5,32.0,31.00,ESE,117,0.0,0.0,66,0.00,,,0.00,TxWx,2013-04-30 20:07:00,
2013-04-30 16:08:00,42.5,32.0,31.00,ESE,116,0.0,0.0,66,0.00,,,0.00,TxWx,2013-04-30 20:08:00,
2013-04-30 16:09:00,42.5,33.0,31.00,ESE,117,0.0,0.0,67,0.00,,,0.00,TxWx,2013-04-30 20:09:00,
2013-04-30 16:10:00,42.5,33.0,31.00,ESE,117,0.0,0.0,67,0.00,,,0.00,TxWx,2013-04-30 20:10:00,
2013-04-30 16:11:00,62.1,23.0,30.94,ESE,106,13.5,14.4,24,0.00,,,0.00,TxWx,2013-04-30 20:11:00,
2013-04-30 16:12:00,42.5,33.0,31.00,ESE,117,0.0,0.0,67,0.00,,,0.00,TxWx,2013-04-30 20:12:00,
2013-04-30 16:13:00,42.5,33.0,31.00,ESE,121,0.0,0.0,67,0.00,,,0.00,TxWx,2013-04-30 20:13:00,
2013-04-30 16:14:00,42.7,33.0,31.00,ESE,122,0.6,0.9,67,0.00,,,0.00,TxWx,2013-04-30 20:14:00,
2013-04-30 16:15:00,42.7,33.0,31.00,SE,124,0.6,0.6,67,0.00,,,0.00,TxWx,2013-04-30 20:15:00,
2013-04-30 16:16:00,42.8,33.0,31.00,SE,124,0.3,0.3,67,0.00,,,0.00,TxWx,2013-04-30 20:16:00,
2013-04-30 16:17:00,62.0,23.0,30.94,ESE,108,12.0,12.0,23,0.00,,,0.00,TxWx,2013-04-30 20:17:00,
2013-04-30 16:18:00,42.8,32.0,31.00,ESE,123,0.0,0.0,66,0.00,,,0.00,TxWx,2013-04-30 20:18:00,
2013-04-30 16:19:00,42.7,32.0,31.00,ESE,123,0.0,0.0,66,0.00,,,0.00,TxWx,2013-04-30 20:19:00,
2013-04-30 16:20:00,42.7,32.0,31.00,ESE,123,0.0,0.0,66,0.00,,,0.00,TxWx,2013-04-30 20:20:00,
2013-04-30 16:21:00,42.7,32.0,31.00,ESE,122,0.0,0.0,66,0.00,,,0.00,TxWx,2013-04-30 20:21:00,
2013-04-30 16:22:00,61.9,24.0,30.94,ESE,108,10.5,12.3,24,0.00,,,0.00,TxWx,2013-04-30 20:22:00,
2013-04-30 16:23:00,42.6,32.0,31.00,ESE,121,0.0,0.0,65,0.00,,,0.00,TxWx,2013-04-30 20:23:00,
2013-04-30 16:24:00,42.5,32.0,31.00,ESE,121,0.0,0.0,65,0.00,,,0.00,TxWx,2013-04-30 20:24:00,
2013-04-30 16:25:00,42.4,30.0,31.00,ESE,122,0.0,0.0,66,0.00,,,0.00,TxWx,2013-04-30 20:25:00,
2013-04-30 16:26:00,42.3,30.0,31.00,ESE,122,0.3,0.3,66,0.00,,,0.00,TxWx,2013-04-30 20:26:00,
2013-04-30 16:27:00,62.0,24.0,30.94,ESE,103,10.5,10.5,24,0.00,,,0.00,TxWx,2013-04-30 20:27:00,
2013-04-30 16:28:00,42.1,31.0,31.00,ESE,102,0.3,0.3,67,0.00,,,0.00,TxWx,2013-04-30 20:28:00,
2013-04-30 16:29:00,42.0,31.0,31.00,ESE,103,0.3,0.3,67,0.00,,,0.00,TxWx,2013-04-30 20:29:00,
2013-04-30 16:30:00,42.0,32.0,31.00,ESE,105,0.0,0.0,68,0.00,,,0.00,TxWx,2013-04-30 20:30:00,
2013-04-30 16:31:00,42.0,32.0,31.00,ESE,108,0.0,0.0,68,0.00,,,0.00,TxWx,2013-04-30 20:31:00,
2013-04-30 16:32:00,61.6,22.0,30.94,East,99,15.9,17.4,22,0.00,,,0.00,TxWx,2013-04-30 20:32:00,
2013-04-30 16:33:00,41.9,32.0,31.00,ESE,110,0.3,0.6,68,0.00,,,0.00,TxWx,2013-04-30 20:33:00,
2013-04-30 16:34:00,41.9,32.0,31.00,ESE,110,0.0,0.0,68,0.00,,,0.00,TxWx,2013-04-30 20:34:00,
2013-04-30 16:35:00,41.8,32.0,31.00,ESE,109,0.0,0.0,68,0.00,,,0.00,TxWx,2013-04-30 20:35:00,
2013-04-30 16:36:00,41.8,32.0,31.01,ESE,109,0.0,0.0,68,0.00,,,0.00,TxWx,2013-04-30 20:36:00,
2013-04-30 16:37:00,62.4,24.0,30.95,ESE,114,12.9,12.9,25,0.00,,,0.00,TxWx,2013-04-30 20:37:00,
2013-04-30 16:38:00,41.7,31.0,31.01,ESE,109,0.0,0.0,67,0.00,,,0.00,TxWx,2013-04-30 20:38:00,
2013-04-30 16:39:00,41.6,32.0,31.01,ESE,109,0.0,0.0,68,0.00,,,0.00,TxWx,2013-04-30 20:39:00,
2013-04-30 16:40:00,41.6,32.0,31.00,ESE,109,0.0,0.0,68,0.00,,,0.00,TxWx,2013-04-30 20:40:00,
2013-04-30 16:42:00,62.0,22.0,30.95,East,99,12.9,12.9,22,0.00,,,0.00,TxWx,2013-04-30 20:42:00,
2013-04-30 16:44:00,41.4,30.0,31.00,ESE,118,0.0,0.0,69,0.00,,,0.00,TxWx,2013-04-30 20:44:00,
2013-04-30 16:45:00,41.4,30.0,31.00,ESE,118,0.0,0.0,69,0.00,,,0.00,TxWx,2013-04-30 20:45:00,
2013-04-30 16:46:00,41.4,30.0,31.00,ESE,118,0.0,0.0,69,0.00,,,0.00,TxWx,2013-04-30 20:46:00,
2013-04-30 16:47:00,41.4,30.0,31.01,ESE,118,0.0,0.0,69,0.00,,,0.00,TxWx,2013-04-30 20:47:00,
2013-04-30 16:48:00,61.7,21.0,30.95,ESE,103,10.5,11.7,22,0.00,,,0.00,TxWx,2013-04-30 20:48:00,
2013-04-30 16:49:00,41.4,30.0,31.01,ESE,118,0.0,0.0,69,0.00,,,0.00,TxWx,2013-04-30 20:49:00,
2013-04-30 16:53:00,61.2,21.0,30.95,ESE,103,10.2,10.8,23,0.00,,,0.00,TxWx,2013-04-30 20:53:00,
2013-04-30 16:58:00,61.1,22.0,30.95,ESE,107,13.2,13.2,23,0.00,,,0.00,TxWx,2013-04-30 20:58:00,
2013-04-30 17:03:00,60.9,21.0,30.95,ESE,113,9.3,9.3,23,0.00,,,0.00,TxWx,2013-04-30 21:03:00,
2013-04-30 17:08:00,61.5,22.0,30.95,ESE,104,5.7,5.7,24,0.00,,,0.00,TxWx,2013-04-30 21:08:00,
2013-04-30 17:13:00,61.5,24.0,30.95,ESE,108,5.1,5.1,24,0.00,,,0.00,TxWx,2013-04-30 21:13:00,
2013-04-30 17:18:00,60.7,23.0,30.94,ESE,106,10.5,12.9,24,0.00,,,0.00,TxWx,2013-04-30 21:18:00,
2013-04-30 17:24:00,60.7,24.0,30.94,ESE,107,13.5,14.4,25,0.00,,,0.00,TxWx,2013-04-30 21:24:00,
2013-04-30 17:29:00,60.7,24.0,30.95,ESE,102,10.8,10.8,25,0.00,,,0.00,TxWx,2013-04-30 21:29:00,
2013-04-30 17:34:00,61.2,25.0,30.95,ESE,103,13.5,13.5,26,0.00,,,0.00,TxWx,2013-04-30 21:34:00,
2013-04-30 17:39:00,60.9,24.0,30.95,ESE,106,9.9,10.5,25,0.00,,,0.00,TxWx,2013-04-30 21:39:00,
2013-04-30 17:44:00,60.6,26.0,30.95,ESE,104,11.4,12.0,27,0.00,,,0.00,TxWx,2013-04-30 21:44:00,
2013-04-30 17:49:00,60.2,24.0,30.95,East,101,7.8,7.8,26,0.00,,,0.00,TxWx,2013-04-30 21:49:00,
2013-04-30 17:55:00,60.3,24.0,30.95,ESE,103,11.4,11.4,27,0.00,,,0.00,TxWx,2013-04-30 21:55:00,
2013-04-30 18:00:00,60.1,26.0,30.96,ESE,103,10.8,10.8,28,0.00,,,0.00,TxWx,2013-04-30 22:00:00,
2013-04-30 18:05:00,59.9,26.0,30.96,ESE,106,7.8,9.3,28,0.00,,,0.00,TxWx,2013-04-30 22:05:00,
2013-04-30 18:10:00,60.1,26.0,30.96,ESE,104,8.7,8.7,29,0.00,,,0.00,TxWx,2013-04-30 22:10:00,
2013-04-30 18:16:00,59.3,25.0,30.96,ESE,105,9.6,9.6,28,0.00,,,0.00,TxWx,2013-04-30 22:16:00,
2013-04-30 18:21:00,59.3,25.0,30.96,ESE,109,7.5,8.4,29,0.00,,,0.00,TxWx,2013-04-30 22:21:00,
2013-04-30 18:26:00,58.8,26.0,30.97,ESE,107,9.0,9.9,30,0.00,,,0.00,TxWx,2013-04-30 22:26:00,
2013-04-30 18:31:00,58.5,26.0,30.97,ESE,103,8.7,9.6,31,0.00,,,0.00,TxWx,2013-04-30 22:31:00,
2013-04-30 18:37:00,58.5,27.0,30.97,East,101,9.3,9.3,30,0.00,,,0.00,TxWx,2013-04-30 22:37:00,
2013-04-30 18:42:00,58.4,26.0,30.97,ESE,107,8.4,8.4,31,0.00,,,0.00,TxWx,2013-04-30 22:42:00,
2013-04-30 18:47:00,58.1,26.0,30.97,ESE,104,3.6,3.6,31,0.00,,,0.00,TxWx,2013-04-30 22:47:00,
2013-04-30 18:52:00,57.8,26.0,30.97,East,101,8.1,8.1,30,0.00,,,0.00,TxWx,2013-04-30 22:52:00,
2013-04-30 18:58:00,57.7,26.0,30.97,ESE,105,6.9,6.9,31,0.00,,,0.00,TxWx,2013-04-30 22:58:00,
2013-04-30 19:03:00,57.5,25.0,30.98,ESE,107,5.4,5.7,30,0.00,,,0.00,TxWx,2013-04-30 23:03:00,
2013-04-30 19:08:00,57.3,24.0,30.98,ESE,102,7.8,7.8,29,0.00,,,0.00,TxWx,2013-04-30 23:08:00,
2013-04-30 19:13:00,56.9,24.0,30.97,ESE,103,6.6,6.6,29,0.00,,,0.00,TxWx,2013-04-30 23:13:00,
2013-04-30 19:18:00,56.7,24.0,30.98,ESE,102,4.2,4.8,29,0.00,,,0.00,TxWx,2013-04-30 23:18:00,
2013-04-30 19:24:00,56.4,23.0,30.98,ESE,105,4.5,4.8,29,0.00,,,0.00,TxWx,2013-04-30 23:24:00,
2013-04-30 19:29:00,56.3,23.0,30.98,ESE,104,7.2,7.5,29,0.00,,,0.00,TxWx,2013-04-30 23:29:00,
2013-04-30 19:34:00,56.3,23.0,30.98,ESE,102,6.3,6.3,29,0.00,,,0.00,TxWx,2013-04-30 23:34:00,
2013-04-30 19:39:00,56.0,24.0,30.98,ESE,107,5.7,5.7,30,0.00,,,0.00,TxWx,2013-04-30 23:39:00,
2013-04-30 19:44:00,55.8,24.0,30.98,ESE,102,5.4,5.7,30,0.00,,,0.00,TxWx,2013-04-30 23:44:00,
2013-04-30 19:49:00,55.5,24.0,30.98,ESE,105,4.2,4.5,31,0.00,,,0.00,TxWx,2013-04-30 23:49:00,
2013-04-30 19:54:00,55.3,24.0,30.99,ESE,104,6.3,7.2,32,0.00,,,0.00,TxWx,2013-04-30 23:54:00,
2013-04-30 20:00:00,55.1,25.0,30.99,East,101,4.5,4.5,32,0.00,,,0.00,TxWx,2013-05-01 00:00:00,
2013-04-30 20:05:00,54.8,26.0,30.99,ESE,102,5.7,6.0,34,0.00,,,0.00,TxWx,2013-05-01 00:05:00,
2013-04-30 20:10:00,54.7,26.0,30.99,ESE,102,5.4,5.7,34,0.00,,,0.00,TxWx,2013-05-01 00:10:00,
2013-04-30 20:15:00,54.5,25.0,30.99,ESE,109,4.8,4.8,34,0.00,,,0.00,TxWx,2013-05-01 00:15:00,
2013-04-30 20:21:00,54.3,25.0,30.99,East,101,5.4,5.4,34,0.00,,,0.00,TxWx,2013-05-01 00:21:00,
2013-04-30 20:26:00,54.2,25.0,30.99,ESE,102,6.6,6.6,34,0.00,,,0.00,TxWx,2013-05-01 00:26:00,
2013-04-30 20:31:00,54.1,26.0,30.99,East,101,5.4,5.4,35,0.00,,,0.00,TxWx,2013-05-01 00:31:00,
2013-04-30 20:36:00,54.0,25.0,30.99,East,101,7.2,7.5,34,0.00,,,0.00,TxWx,2013-05-01 00:36:00,
2013-04-30 20:41:00,53.9,25.0,30.99,ESE,102,3.6,3.6,34,0.00,,,0.00,TxWx,2013-05-01 00:41:00,
2013-04-30 20:46:00,53.7,25.0,30.99,East,98,4.5,4.5,34,0.00,,,0.00,TxWx,2013-05-01 00:46:00,
2013-04-30 20:51:00,53.8,24.0,31.00,ESE,102,6.6,6.6,33,0.00,,,0.00,TxWx,2013-05-01 00:51:00,
2013-04-30 20:56:00,53.5,24.0,31.00,ESE,104,3.3,3.3,34,0.00,,,0.00,TxWx,2013-05-01 00:56:00,
2013-04-30 21:02:00,53.3,25.0,31.00,ESE,104,0.9,1.2,35,0.00,,,0.00,TxWx,2013-05-01 01:02:00,
2013-04-30 21:07:00,52.8,26.0,31.00,East,101,2.7,2.7,36,0.00,,,0.00,TxWx,2013-05-01 01:07:00,
2013-04-30 21:12:00,52.7,26.0,31.00,East,99,3.6,3.6,37,0.00,,,0.00,TxWx,2013-05-01 01:12:00,
2013-04-30 21:18:00,52.8,26.0,31.00,ESE,103,1.5,1.5,36,0.00,,,0.00,TxWx,2013-05-01 01:18:00,
2013-04-30 21:23:00,52.6,27.0,31.00,ESE,119,0.0,0.0,38,0.00,,,0.00,TxWx,2013-05-01 01:23:00,
2013-04-30 21:28:00,52.0,26.0,31.00,ESE,120,0.0,0.0,38,0.00,,,0.00,TxWx,2013-05-01 01:28:00,
2013-04-30 21:33:00,51.3,26.0,30.99,ESE,119,0.0,0.0,40,0.00,,,0.00,TxWx,2013-05-01 01:33:00,
2013-04-30 21:38:00,50.9,27.0,30.99,East,95,0.0,0.0,41,0.00,,,0.00,TxWx,2013-05-01 01:38:00,
2013-04-30 21:44:00,50.7,27.0,30.99,ESE,107,0.0,0.0,42,0.00,,,0.00,TxWx,2013-05-01 01:44:00,
2013-04-30 21:49:00,50.3,27.0,30.99,ESE,123,1.5,1.8,43,0.00,,,0.00,TxWx,2013-05-01 01:49:00,
2013-04-30 21:54:00,50.4,27.0,30.99,ESE,120,0.6,0.6,42,0.00,,,0.00,TxWx,2013-05-01 01:54:00,
2013-04-30 21:59:00,50.3,27.0,31.00,ESE,120,0.0,0.0,43,0.00,,,0.00,TxWx,2013-05-01 01:59:00,
2013-04-30 22:04:00,49.5,28.0,31.00,East,90,0.0,0.0,44,0.00,,,0.00,TxWx,2013-05-01 02:04:00,
2013-04-30 22:09:00,49.1,28.0,31.00,East,91,0.0,0.0,45,0.00,,,0.00,TxWx,2013-05-01 02:09:00,
2013-04-30 22:14:00,48.6,28.0,31.00,East,95,0.0,0.0,47,0.00,,,0.00,TxWx,2013-05-01 02:14:00,
2013-04-30 22:19:00,48.2,28.0,31.00,East,96,0.3,0.3,49,0.00,,,0.00,TxWx,2013-05-01 02:19:00,
2013-04-30 22:25:00,47.6,29.0,31.00,ESE,114,0.0,0.0,50,0.00,,,0.00,TxWx,2013-05-01 02:25:00,
2013-04-30 22:30:00,47.6,29.0,31.00,East,82,0.0,0.0,50,0.00,,,0.00,TxWx,2013-05-01 02:30:00,
2013-04-30 22:35:00,47.0,29.0,31.00,East,81,0.0,0.0,51,0.00,,,0.00,TxWx,2013-05-01 02:35:00,
2013-04-30 22:40:00,46.7,29.0,31.00,East,82,0.0,0.3,52,0.00,,,0.00,TxWx,2013-05-01 02:40:00,
2013-04-30 22:46:00,46.4,29.0,31.00,East,82,0.0,0.0,53,0.00,,,0.00,TxWx,2013-05-01 02:46:00,
2013-04-30 22:51:00,46.1,29.0,31.00,East,98,0.0,0.0,55,0.00,,,0.00,TxWx,2013-05-01 02:51:00,
2013-04-30 22:56:00,45.8,30.0,31.00,ESE,102,1.2,1.2,56,0.00,,,0.00,TxWx,2013-05-01 02:56:00,
2013-04-30 23:01:00,45.6,31.0,31.00,East,99,2.1,2.4,57,0.00,,,0.00,TxWx,2013-05-01 03:01:00,
2013-04-30 23:06:00,45.5,31.0,31.00,ESE,111,2.1,2.1,57,0.00,,,0.00,TxWx,2013-05-01 03:06:00,
2013-04-30 23:11:00,45.1,30.0,31.00,ESE,115,0.6,0.6,58,0.00,,,0.00,TxWx,2013-05-01 03:11:00,
2013-04-30 23:16:00,44.8,30.0,31.00,ESE,120,0.0,0.0,58,0.00,,,0.00,TxWx,2013-05-01 03:16:00,
2013-04-30 23:21:00,44.7,29.0,31.00,ESE,118,0.0,0.3,57,0.00,,,0.00,TxWx,2013-05-01 03:21:00,
2013-04-30 23:27:00,44.4,29.0,31.00,ESE,118,0.0,0.0,57,0.00,,,0.00,TxWx,2013-05-01 03:27:00,
2013-04-30 23:31:00,44.2,30.0,31.00,ESE,118,0.0,0.0,60,0.00,,,0.00,TxWx,2013-05-01 03:31:00,
2013-04-30 23:37:00,43.9,30.0,31.00,ESE,118,0.0,0.0,61,0.00,,,0.00,TxWx,2013-05-01 03:37:00,
2013-04-30 23:42:00,43.6,31.0,31.00,ESE,116,0.0,0.0,63,0.00,,,0.00,TxWx,2013-05-01 03:42:00,
2013-04-30 23:47:00,43.3,30.0,31.00,ESE,117,0.0,0.0,63,0.00,,,0.00,TxWx,2013-05-01 03:47:00,
2013-04-30 23:52:00,43.1,30.0,31.00,ESE,116,0.0,0.0,64,0.00,,,0.00,TxWx,2013-05-01 03:52:00,
2013-04-30 23:57:00,42.8,31.0,31.00,ESE,116,0.0,0.3,64,0.00,,,0.00,TxWx,2013-05-01 03:57:00,